This is the latest recevied weather packets stored in our database for station/object JF2ZGN-13. If no packets are shown the sender has not sent any weather packets the latest 10 day(s).
| Time | Temp. | Humidity | Pressure | Rain* | Wind** | Luminosity | Snow |
|---|---|---|---|---|---|---|---|
| 1777808083 | 11.11° C | 58% | 901.2 hPa | 0.51 mm | - | - | - |
| 1777807482 | 11.11° C | 39% | 900.9 hPa | 0.25 mm | - | - | - |
| 1777806882 | 11.11° C | 37% | 901 hPa | 0.25 mm | - | - | - |
| 1777806282 | 11.11° C | 39% | 900.9 hPa | 0 mm | - | - | - |
| 1777805681 | 11.11° C | 47% | 900.9 hPa | 0 mm | - | - | - |
| 1777805080 | 11.67° C | 56% | 901 hPa | 0 mm | - | - | - |
| 1777804480 | 11.11° C | 71% | 901 hPa | 0 mm | - | - | - |
| 1777803880 | 11.11° C | 72% | 900.9 hPa | 0 mm | - | - | - |
| 1777803279 | 11.11° C | 77% | 900.7 hPa | 0 mm | - | - | - |
| 1777802679 | 11.11° C | 73% | 900.7 hPa | 0 mm | - | - | - |
| 1777802078 | 11.11° C | 73% | 901 hPa | 0 mm | - | - | - |
| 1777801478 | 11.11° C | 62% | 901 hPa | 0 mm | - | - | - |
| 1777800877 | 11.67° C | 71% | 901.5 hPa | 0 mm | - | - | - |
| 1777800279 | 11.67° C | 76% | 901.6 hPa | 0 mm | - | - | - |
| 1777799676 | 11.67° C | 80% | 901.6 hPa | 0 mm | - | - | - |
| 1777799076 | 11.67° C | 79% | 901.7 hPa | 0 mm | - | - | - |
| 1777798475 | 11.67° C | 74% | 901.6 hPa | 0 mm | - | - | - |
| 1777797875 | 11.67° C | 79% | 901.8 hPa | 0 mm | - | - | - |
| 1777797275 | 11.67° C | 83% | 901.5 hPa | 0 mm | - | - | - |
| 1777796674 | 11.67° C | 81% | 901.7 hPa | 0 mm | - | - | - |
| 1777796076 | 11.67° C | 79% | 902 hPa | 0 mm | - | - | - |
| 1777795474 | 11.67° C | 78% | 902.2 hPa | 0 mm | - | - | - |
| 1777794873 | 11.67° C | 71% | 902.2 hPa | 0 mm | - | - | - |
| 1777794272 | 12.22° C | 76% | 902.4 hPa | 0 mm | - | - | - |
| 1777793672 | 12.22° C | 72% | 902.3 hPa | 0 mm | - | - | - |
* Rain since midnight (hover to see other rain measurements)
** Current wind speed in m/s (hover to see current wind gust speed)